| time (UTC) | temp C | wind direction | speed KPH | gust KPH | rain 1hr cm | rain 24hr cm | rain mn cm | humidity % | barometer mb |
| 20260831150926 | 18 | 192 | 9.7 | 17.7 | 0.00 | 0.00 | 0.00 | 90 | 1028.1 |
| 20260831150317 | 18 | 192 | 9.7 | 17.7 | 0.00 | 0.00 | 0.00 | 90 | 1028.1 |
| 20260831145441 | 18 | 186 | 11.3 | 16.1 | 0.00 | 0.00 | 0.00 | 91 | 1028.1 |
| 20260831144823 | 18 | 186 | 11.3 | 16.1 | 0.00 | 0.00 | 0.00 | 91 | 1028.1 |
| 20260831143922 | 18 | 209 | 11.3 | 16.1 | 0.00 | 0.00 | 0.00 | 92 | 1027.7 |
| 20260831143331 | 18 | 209 | 11.3 | 16.1 | 0.00 | 0.00 | 0.00 | 92 | 1027.7 |
| 20260831142410 | 18 | 244 | 6.4 | 12.9 | 0.00 | 0.00 | 0.00 | 92 | 1027.7 |
| 20260831140929 | 18 | 247 | 12.9 | 16.1 | 0.00 | 0.00 | 0.00 | 92 | 1027.7 |
| 20260831140339 | 18 | 247 | 12.9 | 16.1 | 0.00 | 0.00 | 0.00 | 92 | 1027.7 |
| 20260831135433 | 18 | 266 | 11.3 | 12.9 | 0.00 | 0.00 | 0.00 | 92 | 1027.4 |
| 20260831134848 | 18 | 266 | 11.3 | 12.9 | 0.00 | 0.00 | 0.00 | 92 | 1027.4 |
| 20260831133340 | 18 | 190 | 9.7 | 11.3 | 0.00 | 0.00 | 0.00 | 94 | 1027.4 |
| 20260831132448 | 17 | 258 | 4.8 | 9.7 | 0.00 | 0.00 | 0.00 | 95 | 1027.7 |
| 20260831131848 | 17 | 258 | 4.8 | 9.7 | 0.00 | 0.00 | 0.00 | 95 | 1027.7 |
| 20260831131239 | 17 | 258 | 4.8 | 12.9 | 0.00 | 0.00 | 0.00 | 95 | 1027.7 |
| 20260831130638 | 17 | 258 | 4.8 | 12.9 | 0.00 | 0.00 | 0.00 | 95 | 1027.7 |
| 20260831130043 | 17 | 258 | 4.8 | 12.9 | 0.00 | 0.00 | 0.00 | 95 | 1027.7 |
| 20260831125406 | 17 | 205 | 6.4 | 12.9 | 0.00 | 0.00 | 0.00 | 95 | 1027.7 |
| 20260831124810 | 17 | 205 | 6.4 | 12.9 | 0.00 | 0.00 | 0.00 | 95 | 1027.7 |
| 20260831123910 | 17 | 180 | 1.6 | 12.9 | 0.00 | 0.00 | 0.00 | 95 | 1027.7 |
| 20260831123350 | 17 | 180 | 1.6 | 12.9 | 0.00 | 0.00 | 0.00 | 95 | 1027.7 |
| 20260831122413 | 17 | 227 | 6.4 | 11.3 | 0.00 | 0.00 | 0.00 | 95 | 1027.7 |
| 20260831121833 | 17 | 227 | 6.4 | 11.3 | 0.00 | 0.00 | 0.00 | 95 | 1027.7 |
| 20260831120318 | 17 | 239 | 8.0 | 14.5 | 0.00 | 0.00 | 0.00 | 95 | 1027.4 |
| 20260831115442 | 17 | 209 | 8.0 | 16.1 | 0.00 | 0.00 | 0.00 | 94 | 1027.4 |
| 20260831114222 | 17 | 240 | 14.5 | 14.5 | 0.00 | 0.00 | 0.00 | 94 | 1027.0 |
| 20260831113636 | 17 | 240 | 14.5 | 14.5 | 0.00 | 0.00 | 0.00 | 94 | 1027.0 |
| 20260831113049 | 17 | 240 | 14.5 | 14.5 | 0.00 | 0.00 | 0.00 | 94 | 1027.0 |
| 20260831112411 | 17 | 212 | 6.4 | 16.1 | 0.00 | 0.00 | 0.00 | 94 | 1027.0 |
| 20260831110946 | 16 | 257 | 3.2 | 14.5 | 0.00 | 0.00 | 0.00 | 94 | 1027.0 |
| 20260831105122 | 16 | 259 | 6.4 | 16.1 | 0.00 | 0.00 | 0.00 | 94 | 1026.7 |
| 20260831104545 | 16 | 259 | 6.4 | 16.1 | 0.00 | 0.00 | 0.00 | 94 | 1026.7 |
| 20260831103922 | 16 | 226 | 12.9 | 17.7 | 0.00 | 0.00 | 0.00 | 93 | 1026.7 |
| 20260831102417 | 17 | 225 | 11.3 | 17.7 | 0.00 | 0.00 | 0.00 | 93 | 1026.4 |
| 20260831101839 | 17 | 225 | 11.3 | 17.7 | 0.00 | 0.00 | 0.00 | 93 | 1026.4 |
| 20260831101226 | 17 | 213 | 6.4 | 16.1 | 0.00 | 0.00 | 0.00 | 93 | 1026.4 |
| 20260831100629 | 17 | 213 | 6.4 | 16.1 | 0.00 | 0.00 | 0.00 | 93 | 1026.4 |
| 20260831100049 | 17 | 213 | 6.4 | 16.1 | 0.00 | 0.00 | 0.00 | 93 | 1026.4 |
| 20260831094241 | 17 | 209 | 11.3 | 22.5 | 0.00 | 0.00 | 0.00 | 92 | 1026.4 |
| 20260831093645 | 17 | 209 | 11.3 | 22.5 | 0.00 | 0.00 | 0.00 | 92 | 1026.4 |
| 20260831093047 | 17 | 209 | 11.3 | 22.5 | 0.00 | 0.00 | 0.00 | 92 | 1026.4 |
| 20260831092425 | 17 | 360 | 9.7 | 16.1 | 0.00 | 0.00 | 0.00 | 92 | 1026.7 |
| 20260831091841 | 17 | 360 | 9.7 | 16.1 | 0.00 | 0.00 | 0.00 | 92 | 1026.7 |
| 20260831090932 | 17 | 234 | 8.0 | 14.5 | 0.00 | 0.00 | 0.00 | 92 | 1026.7 |
| 20260831090349 | 17 | 234 | 8.0 | 14.5 | 0.00 | 0.00 | 0.00 | 92 | 1026.7 |
| 20260831085446 | 17 | 209 | 8.0 | 14.5 | 0.00 | 0.00 | 0.00 | 92 | 1026.7 |
| 20260831084813 | 17 | 209 | 8.0 | 14.5 | 0.00 | 0.00 | 0.00 | 92 | 1026.7 |
| 20260831083627 | 17 | 212 | 6.4 | 12.9 | 0.00 | 0.00 | 0.00 | 91 | 1026.4 |
| 20260831083041 | 17 | 212 | 6.4 | 12.9 | 0.00 | 0.00 | 0.00 | 91 | 1026.4 |
| 20260831082423 | 17 | 263 | 6.4 | 11.3 | 0.00 | 0.00 | 0.00 | 92 | 1026.4 |
| 20260831081818 | 17 | 263 | 6.4 | 11.3 | 0.00 | 0.00 | 0.00 | 92 | 1026.4 |
| 20260831080934 | 17 | 225 | 4.8 | 14.5 | 0.00 | 0.00 | 0.00 | 91 | 1026.4 |
| 20260831080325 | 17 | 225 | 4.8 | 14.5 | 0.00 | 0.00 | 0.00 | 91 | 1026.4 |
| 20260831075739 | 17 | 212 | 4.8 | 14.5 | 0.00 | 0.00 | 0.00 | 90 | 1026.0 |
| 20260831075148 | 17 | 212 | 4.8 | 14.5 | 0.00 | 0.00 | 0.00 | 90 | 1026.0 |
| 20260831073946 | 17 | 206 | 4.8 | 16.1 | 0.00 | 0.00 | 0.00 | 90 | 1026.0 |
| 20260831073349 | 17 | 206 | 4.8 | 16.1 | 0.00 | 0.00 | 0.00 | 90 | 1026.0 |
| 20260831071845 | 17 | 256 | 11.3 | 12.9 | 0.00 | 0.00 | 0.00 | 90 | 1026.0 |
| 20260831070648 | 17 | 260 | 11.3 | 17.7 | 0.00 | 0.00 | 0.00 | 90 | 1026.0 |
| 20260831070008 | 17 | 245 | 6.4 | 14.5 | 0.00 | 0.00 | 0.00 | 89 | 1026.4 |
| 20260831065444 | 17 | 245 | 6.4 | 14.5 | 0.00 | 0.00 | 0.00 | 89 | 1026.4 |
| 20260831064821 | 17 | 245 | 6.4 | 14.5 | 0.00 | 0.00 | 0.00 | 89 | 1026.4 |
| 20260831063335 | 17 | 246 | 12.9 | 17.7 | 0.00 | 0.00 | 0.00 | 89 | 1026.4 |
| 20260831062429 | 17 | 206 | 6.4 | 14.5 | 0.00 | 0.00 | 0.00 | 88 | 1026.7 |
| 20260831061817 | 17 | 206 | 6.4 | 14.5 | 0.00 | 0.00 | 0.00 | 88 | 1026.7 |
| 20260831060929 | 17 | 252 | 6.4 | 16.1 | 0.00 | 0.00 | 0.00 | 87 | 1026.7 |
| 20260831060306 | 17 | 252 | 6.4 | 16.1 | 0.00 | 0.00 | 0.00 | 87 | 1026.7 |
| 20260831055726 | 17 | 257 | 8.0 | 12.9 | 0.00 | 0.00 | 0.00 | 88 | 1027.0 |
| 20260831055110 | 17 | 257 | 8.0 | 12.9 | 0.00 | 0.00 | 0.00 | 88 | 1027.0 |
| 20260831054545 | 17 | 257 | 8.0 | 12.9 | 0.00 | 0.00 | 0.00 | 88 | 1027.0 |
| 20260831053931 | 17 | 248 | 6.4 | 9.7 | 0.00 | 0.00 | 0.00 | 88 | 1027.0 |
| 20260831053334 | 17 | 248 | 6.4 | 9.7 | 0.00 | 0.00 | 0.00 | 88 | 1027.0 |
| 20260831051825 | 17 | 214 | 6.4 | 11.3 | 0.00 | 0.00 | 0.00 | 88 | 1027.0 |
| 20260831050642 | 17 | 201 | 3.2 | 9.7 | 0.00 | 0.00 | 0.00 | 88 | 1027.0 |
| 20260831045438 | 17 | 256 | 8.0 | 14.5 | 0.00 | 0.00 | 0.00 | 88 | 1027.0 |
| 20260831044213 | 17 | 223 | 6.4 | 16.1 | 0.00 | 0.00 | 0.00 | 88 | 1027.4 |
| 20260831043638 | 17 | 223 | 6.4 | 16.1 | 0.00 | 0.00 | 0.00 | 88 | 1027.4 |
| 20260831043049 | 17 | 223 | 6.4 | 16.1 | 0.00 | 0.00 | 0.00 | 88 | 1027.4 |
| 20260831042416 | 17 | 247 | 11.3 | 19.3 | 0.00 | 0.00 | 0.00 | 88 | 1027.4 |
| 20260831041832 | 17 | 247 | 11.3 | 19.3 | 0.00 | 0.00 | 0.00 | 88 | 1027.4 |
| 20260831040912 | 17 | 229 | 9.7 | 17.7 | 0.00 | 0.00 | 0.00 | 88 | 1027.4 |
| 20260831034829 | 18 | 237 | 11.3 | 19.3 | 0.00 | 0.00 | 0.00 | 87 | 1027.4 |
| 20260831033929 | 18 | 205 | 9.7 | 20.9 | 0.00 | 0.00 | 0.00 | 87 | 1027.4 |
| 20260831033344 | 18 | 205 | 9.7 | 20.9 | 0.00 | 0.00 | 0.00 | 87 | 1027.4 |
| 20260831032451 | 18 | 262 | 11.3 | 17.7 | 0.00 | 0.00 | 0.00 | 87 | 1027.4 |
| 20260831031813 | 18 | 262 | 11.3 | 17.7 | 0.00 | 0.00 | 0.00 | 87 | 1027.4 |
| 20260831030941 | 18 | 211 | 6.4 | 14.5 | 0.00 | 0.00 | 0.00 | 88 | 1027.4 |
| 20260831030318 | 18 | 211 | 6.4 | 14.5 | 0.00 | 0.00 | 0.00 | 88 | 1027.4 |
| 20260831025140 | 18 | 238 | 8.0 | 16.1 | 0.00 | 0.00 | 0.00 | 87 | 1027.4 |
| 20260831024541 | 18 | 238 | 8.0 | 16.1 | 0.00 | 0.00 | 0.00 | 87 | 1027.4 |
| 20260831023934 | 18 | 263 | 16.1 | 19.3 | 0.00 | 0.00 | 0.00 | 87 | 1027.4 |
| 20260831023310 | 18 | 263 | 16.1 | 19.3 | 0.00 | 0.00 | 0.00 | 87 | 1027.4 |
| 20260831022426 | 18 | 232 | 8.0 | 16.1 | 0.00 | 0.00 | 0.00 | 85 | 1027.7 |
| 20260831021811 | 18 | 232 | 8.0 | 16.1 | 0.00 | 0.00 | 0.00 | 85 | 1027.7 |
| 20260831020925 | 18 | 215 | 4.8 | 12.9 | 0.00 | 0.00 | 0.00 | 87 | 1027.4 |
| 20260831020343 | 18 | 215 | 4.8 | 12.9 | 0.00 | 0.00 | 0.00 | 87 | 1027.4 |
| 20260831015435 | 18 | 244 | 8.0 | 14.5 | 0.00 | 0.00 | 0.00 | 90 | 1027.7 |
| 20260831014807 | 18 | 244 | 8.0 | 14.5 | 0.00 | 0.00 | 0.00 | 90 | 1027.7 |
| 20260831014231 | 18 | 230 | 4.8 | 12.9 | 0.00 | 0.00 | 0.00 | 89 | 1028.1 |
| 20260831013622 | 18 | 230 | 4.8 | 12.9 | 0.00 | 0.00 | 0.00 | 89 | 1028.1 |
| 20260831013049 | 18 | 230 | 4.8 | 12.9 | 0.00 | 0.00 | 0.00 | 89 | 1028.1 |
| 20260831012433 | 18 | 205 | 6.4 | 17.7 | 0.00 | 0.00 | 0.00 | 88 | 1027.7 |
| 20260831011251 | 18 | 205 | 6.4 | 11.3 | 0.00 | 0.00 | 0.00 | 88 | 1027.4 |
| 20260831010633 | 18 | 205 | 6.4 | 11.3 | 0.00 | 0.00 | 0.00 | 88 | 1027.4 |
| 20260831010048 | 18 | 205 | 6.4 | 11.3 | 0.00 | 0.00 | 0.00 | 88 | 1027.4 |
| 20260831005445 | 18 | 360 | 6.4 | 14.5 | 0.00 | 0.00 | 0.00 | 88 | 1027.4 |
| 20260831004839 | 18 | 360 | 6.4 | 14.5 | 0.00 | 0.00 | 0.00 | 88 | 1027.4 |
| 20260831003948 | 18 | 230 | 8.0 | 16.1 | 0.00 | 0.00 | 0.00 | 88 | 1027.0 |
| 20260831003307 | 18 | 230 | 8.0 | 16.1 | 0.00 | 0.00 | 0.00 | 88 | 1027.0 |
| 20260831002133 | 18 | 213 | 8.0 | 14.5 | 0.00 | 0.00 | 0.00 | 89 | 1026.7 |
| 20260831001541 | 18 | 213 | 8.0 | 14.5 | 0.00 | 0.00 | 0.00 | 89 | 1026.7 |
| 20260831000949 | 18 | 256 | 11.3 | 14.5 | 0.00 | 0.00 | 0.00 | 88 | 1026.4 |
| 20260831000313 | 18 | 256 | 11.3 | 14.5 | 0.00 | 0.00 | 0.00 | 88 | 1026.4 |
| 20260830234847 | 18 | 218 | 6.4 | 16.1 | 0.00 | 0.00 | 0.00 | 89 | 1026.4 |
| 20260830233947 | 19 | 229 | 1.6 | 16.1 | 0.00 | 0.00 | 0.00 | 87 | 1026.4 |
| 20260830233325 | 19 | 229 | 1.6 | 16.1 | 0.00 | 0.00 | 0.00 | 87 | 1026.4 |
| 20260830232412 | 20 | 215 | 6.4 | 17.7 | 0.00 | 0.00 | 0.00 | 86 | 1026.7 |
| 20260830230919 | 20 | 184 | 6.4 | 9.7 | 0.00 | 0.00 | 0.00 | 84 | 1026.7 |
| 20260830225747 | 20 | 202 | 1.6 | 6.4 | 0.00 | 0.00 | 0.00 | 85 | 1026.7 |
| 20260830225112 | 20 | 202 | 1.6 | 6.4 | 0.00 | 0.00 | 0.00 | 85 | 1026.7 |
| 20260830224549 | 20 | 202 | 1.6 | 6.4 | 0.00 | 0.00 | 0.00 | 85 | 1026.7 |
| 20260830223926 | 20 | 279 | 1.6 | 16.1 | 0.00 | 0.00 | 0.00 | 82 | 1026.7 |
| 20260830223313 | 20 | 279 | 1.6 | 16.1 | 0.00 | 0.00 | 0.00 | 82 | 1026.7 |
| 20260830222427 | 20 | 236 | 11.3 | 19.3 | 0.00 | 0.00 | 0.00 | 81 | 1026.7 |
| 20260830221823 | 20 | 236 | 11.3 | 19.3 | 0.00 | 0.00 | 0.00 | 81 | 1026.7 |
| 20260830220940 | 20 | 265 | 12.9 | 16.1 | 0.00 | 0.00 | 0.00 | 81 | 1027.0 |
| 20260830220335 | 20 | 265 | 12.9 | 16.1 | 0.00 | 0.00 | 0.00 | 81 | 1027.0 |
| 20260830215123 | 21 | 246 | 6.4 | 16.1 | 0.00 | 0.00 | 0.00 | 79 | 1027.0 |
| 20260830214548 | 21 | 246 | 6.4 | 16.1 | 0.00 | 0.00 | 0.00 | 79 | 1027.0 |
| 20260830213940 | 22 | 269 | 6.4 | 17.7 | 0.00 | 0.00 | 0.00 | 75 | 1026.7 |
| 20260830213322 | 22 | 269 | 6.4 | 17.7 | 0.00 | 0.00 | 0.00 | 75 | 1026.7 |
| 20260830212447 | 22 | 187 | 14.5 | 22.5 | 0.00 | 0.00 | 0.00 | 72 | 1026.7 |
| 20260830211844 | 22 | 187 | 14.5 | 22.5 | 0.00 | 0.00 | 0.00 | 72 | 1026.7 |
| 20260830211221 | 22 | 245 | 12.9 | 19.3 | 0.00 | 0.00 | 0.00 | 75 | 1026.7 |
| 20260830210613 | 22 | 245 | 12.9 | 19.3 | 0.00 | 0.00 | 0.00 | 75 | 1026.7 |
| 20260830210045 | 22 | 245 | 12.9 | 19.3 | 0.00 | 0.00 | 0.00 | 75 | 1026.7 |
| 20260830205430 | 22 | 212 | 4.8 | 19.3 | 0.00 | 0.00 | 0.00 | 72 | 1026.4 |
| 20260830204832 | 22 | 212 | 4.8 | 19.3 | 0.00 | 0.00 | 0.00 | 72 | 1026.4 |
| 20260830204247 | 22 | 160 | 6.4 | 20.9 | 0.00 | 0.00 | 0.00 | 72 | 1026.4 |
| 20260830203641 | 22 | 160 | 6.4 | 20.9 | 0.00 | 0.00 | 0.00 | 72 | 1026.4 |
| 20260830203046 | 22 | 160 | 6.4 | 20.9 | 0.00 | 0.00 | 0.00 | 72 | 1026.4 |
| 20260830202427 | 22 | 227 | 8.0 | 19.3 | 0.00 | 0.00 | 0.00 | 69 | 1026.7 |
| 20260830201822 | 22 | 227 | 8.0 | 19.3 | 0.00 | 0.00 | 0.00 | 69 | 1026.7 |
| 20260830200319 | 23 | 256 | 12.9 | 19.3 | 0.00 | 0.00 | 0.00 | 67 | 1027.0 |
| 20260830195416 | 22 | 172 | 3.2 | 22.5 | 0.00 | 0.00 | 0.00 | 68 | 1026.7 |
| 20260830194833 | 22 | 172 | 3.2 | 22.5 | 0.00 | 0.00 | 0.00 | 68 | 1026.7 |
| 20260830193943 | 22 | 227 | 12.9 | 27.4 | 0.00 | 0.00 | 0.00 | 71 | 1027.0 |
| 20260830192722 | 22 | 246 | 16.1 | 22.5 | 0.00 | 0.00 | 0.00 | 72 | 1027.4 |
| 20260830192122 | 22 | 246 | 16.1 | 22.5 | 0.00 | 0.00 | 0.00 | 72 | 1027.4 |
| 20260830190935 | 21 | 200 | 8.0 | 22.5 | 0.00 | 0.00 | 0.00 | 77 | 1027.4 |
| 20260830190313 | 21 | 200 | 8.0 | 22.5 | 0.00 | 0.00 | 0.00 | 77 | 1027.4 |
| 20260830185707 | 21 | 200 | 16.1 | 22.5 | 0.00 | 0.00 | 0.00 | 74 | 1027.7 |
| 20260830185132 | 21 | 200 | 16.1 | 22.5 | 0.00 | 0.00 | 0.00 | 74 | 1027.7 |
| 20260830184508 | 22 | 267 | 3.2 | 22.5 | 0.00 | 0.00 | 0.00 | 67 | 1027.7 |
| 20260830183934 | 22 | 267 | 3.2 | 22.5 | 0.00 | 0.00 | 0.00 | 67 | 1027.7 |
| 20260830182440 | 22 | 200 | 8.0 | 22.5 | 0.00 | 0.00 | 0.00 | 67 | 1027.7 |
| 20260830181841 | 22 | 200 | 8.0 | 22.5 | 0.00 | 0.00 | 0.00 | 67 | 1027.7 |
| 20260830180617 | 22 | 210 | 11.3 | 19.3 | 0.00 | 0.00 | 0.00 | 66 | 1028.1 |
| 20260830180049 | 22 | 210 | 11.3 | 19.3 | 0.00 | 0.00 | 0.00 | 66 | 1028.1 |
| 20260830175448 | 22 | 238 | 8.0 | 27.4 | 0.00 | 0.00 | 0.00 | 63 | 1028.1 |
| 20260830174847 | 22 | 238 | 8.0 | 27.4 | 0.00 | 0.00 | 0.00 | 63 | 1028.1 |
| 20260830173949 | 21 | 202 | 14.5 | 29.0 | 0.00 | 0.00 | 0.00 | 72 | 1028.4 |
| 20260830172446 | 21 | 186 | 9.7 | 24.1 | 0.00 | 0.00 | 0.00 | 71 | 1028.4 |
| 20260830171844 | 21 | 186 | 9.7 | 24.1 | 0.00 | 0.00 | 0.00 | 71 | 1028.4 |
| 20260830171240 | 20 | 242 | 17.7 | 24.1 | 0.00 | 0.00 | 0.00 | 82 | 1028.4 |
| 20260830170609 | 20 | 242 | 17.7 | 24.1 | 0.00 | 0.00 | 0.00 | 82 | 1028.4 |
| 20260830170047 | 20 | 242 | 17.7 | 24.1 | 0.00 | 0.00 | 0.00 | 82 | 1028.4 |
| 20260830165423 | 21 | 205 | 16.1 | 20.9 | 0.00 | 0.00 | 0.00 | 77 | 1028.7 |
| 20260830164843 | 21 | 205 | 16.1 | 20.9 | 0.00 | 0.00 | 0.00 | 77 | 1028.7 |
| 20260830163613 | 20 | 197 | 9.7 | 22.5 | 0.00 | 0.00 | 0.00 | 81 | 1028.7 |
| 20260830163045 | 20 | 197 | 9.7 | 22.5 | 0.00 | 0.00 | 0.00 | 81 | 1028.7 |
| 20260830162414 | 20 | 192 | 11.3 | 17.7 | 0.00 | 0.00 | 0.00 | 82 | 1029.1 |
| 20260830161808 | 20 | 192 | 11.3 | 17.7 | 0.00 | 0.00 | 0.00 | 82 | 1029.1 |
| 20260830160925 | 20 | 171 | 9.7 | 20.9 | 0.00 | 0.00 | 0.00 | 81 | 1028.7 |
| 20260830160320 | 20 | 171 | 9.7 | 20.9 | 0.00 | 0.00 | 0.00 | 81 | 1028.7 |
| 20260830155408 | 21 | 209 | 12.9 | 22.5 | 0.00 | 0.00 | 0.00 | 76 | 1028.7 |
| 20260830154835 | 21 | 209 | 12.9 | 22.5 | 0.00 | 0.00 | 0.00 | 76 | 1028.7 |
| 20260830153924 | 20 | 190 | 9.7 | 24.1 | 0.00 | 0.00 | 0.00 | 84 | 1028.7 |
| 20260830153326 | 20 | 190 | 9.7 | 24.1 | 0.00 | 0.00 | 0.00 | 84 | 1028.7 |
| 20260830152442 | 19 | 182 | 14.5 | 22.5 | 0.00 | 0.00 | 0.00 | 85 | 1028.7 |